Flag for U.S.A. Weather past 2 weeks in Brownsville, Texas, U.S.A.

Now
88 °F

Partly sunny.


Feels Like: 98 °F
Forecast: 76 / 89 °F
Wind: 14 mph from East

Location: Brownsville / South Padre Island International Airport

Current Time: Sep 1, 2015 at 2:16:41 PM

Latest Report: Sep 1, 2015 at 1:53 PM


Visibility: 10 mi

Pressure: 29.96 "Hg

Humidity: 65%

Dew point: 75 °F

Location of BrownsvilleLocation

Historic Weather in Brownsville — Graph

°F

Brownsville temperature yesterday

Maximum temperature yesterday: 90 °F (at 12:03 PM)
Minimum temperature yesterday: 74 °F (at 6:04 AM)
Average temperature yesterday: 78 °F

Past Weeks' High & Low Weather Summary

 TemperatureHumidityPressure
High97 °F (Aug 25, 1:53 PM)100% (Aug 22, 7:53 AM)30.09 "Hg (Aug 22, 7:53 AM)
Low68 °F (Aug 29, 5:53 AM)39% (Aug 27, 4:53 PM)29.70 "Hg (Aug 19, 6:53 PM)
Average82 °F78%29.94 "Hg
* Reported Aug 17 12:53 PM — Sep 1 12:53 PM, Brownsville, Weather by CustomWeather, © 2015

Note: Actual official high and low records may vary slightly from our data, if they occured in-between our weather recording intervals... More about our weather records

Advertising

Brownsville weather history for previous 24 hours

 ConditionsComfort  
Time TempWeatherWind HumidityBarometerVisibility
12:53 PM
Tue, Sep 1
86 °FMostly cloudy.16 mph67%29.97 "Hg10 mi
11:53 AM86 °FBroken clouds.14 mph70%29.98 "Hg10 mi
10:53 AM84 °FBroken clouds.14 mph74%29.99 "Hg10 mi
9:53 AM82 °FPassing clouds.16 mph79%29.97 "Hg10 mi
8:53 AM79 °FSunny.8 mph88%29.96 "Hg10 mi
7:53 AM74 °FClear.6 mph94%29.95 "Hg10 mi
6:53 AM72 °FClear.6 mph97%29.93 "Hg10 mi
5:53 AM73 °FPassing clouds.No wind94%29.94 "Hg10 mi
4:53 AM74 °FPassing clouds.6 mph91%29.92 "Hg10 mi
3:53 AM76 °FClear.10 mph94%29.92 "Hg10 mi
2:53 AM78 °FPassing clouds.8 mph93%29.94 "Hg10 mi
1:53 AM78 °FPassing clouds.5 mph93%29.94 "Hg10 mi
12:53 AM79 °FPassing clouds.9 mph97%29.95 "Hg10 mi
11:53 PM
Mon, Aug 31
79 °FPassing clouds.10 mph94%29.96 "Hg10 mi
9:53 PM77 °FClear.No wind94%29.97 "Hg10 mi
8:53 PM77 °FPassing clouds.No wind94%29.95 "Hg10 mi
7:53 PM76 °FLight rain. Partly sunny.13 mph94%29.87 "Hg10 mi
6:53 PM78 °FLight rain. Scattered clouds.6 mph79%29.92 "Hg10 mi
5:53 PM76 °FThunderstorms. Broken clouds.8 mph91%29.90 "Hg9 mi
4:53 PM78 °FStrong thunderstorms. Fog.9 mph93%29.94 "Hg1 mi
3:53 PM79 °FThunderstorms. Cloudy.14 mph94%29.93 "Hg9 mi
2:53 PM78 °FThunderstorms. Mostly cloudy.9 mph90%29.97 "Hg8 mi
Weather by CustomWeather, © 2015

See weather overviewHow to use our weather pages